International Virtual Aviation Organisation

Russian Federation and Kazakhstan MCD

 

Карточка аэропорта UHMA

Внимание!
Информация на этой странице в стадии наполнения.
Если вы не увидели какой-то информации, или заметили неточность - пожалуйста сообщите нам!
Спасибо!
Команда RU-STAFF
Название аэропортаУгольный
Название аэропорта (англ.)Ugolny
Превышение194 ft. (59.1 m.)
Координаты64°44.1', 177°44.28'
Высота перехода1600m
Эшелон переходаQFE>=755mm:FL070; QFE<755=>728:FL080; QFE<728:FL090
Коды ответчика6501-6537
Зона ОрВДМагадан РПИ (UHMM)
Данные METARUHMA 302200Z 36004MPS 9999 FEW007 M15/M17 Q1023 R01/////// NOSIG RMK TDZ R01/36004G05MPS END R01/36003G04MPS QFE764/1018
Проноз погоды (TAF)UHMA 301943Z 3021/3121 01003G08MPS 9999 SCT015 TEMPO 3109/3121 34006G11MPS 1100 BR SCT002 BKN010
NOTAMshow/hide NOTAM
AWOS   TABLE

Информация о ВПП


Диспетчерские позиции

Позывной Наименование органа УВД Частота
UHMA_APPАнадырь-Подход124.0
UHMA_TWRАнадырь-Старт124.0



Спутниковое изображение